Location: Narrabri
(30.3170°S, 149.7830°E)
Time: 16:00:47
(UTC+11:00)

ISS - Visible Passes

Search period start: 18 December 2017 00:00
Search period end: 28 December 2017 00:00
Orbit: 402 x 406 km, 51.6° (Epoch: 18 December)

Date Brightness Start Highest point End Pass type
(mag) Time Alt. Az. Time Alt. Az. Time Alt. Az.
19 Dec -0.5 05:17:28 10° S 05:19:26 15° SE 05:21:22 10° ESE visible
19 Dec-0.521:59:56SE21:59:56SE21:50:55NWvisible
20 Dec -3.2 21:00:01 10° NNW 21:03:02 35° NE 21:06:05 10° ESE visible
20 Dec -0.7 22:37:23 10° WSW 22:39:35 16° SW 22:41:49 10° S visible
21 Dec -1.8 05:08:29 10° SSW 05:11:33 33° SE 05:14:35 10° ENE visible
21 Dec -1.8 21:44:11 10° WNW 21:47:10 30° SW 21:50:09 10° SSE visible
22 Dec -0.6 04:16:46 10° S 04:19:07 18° SE 04:21:27 10° E visible
22 Dec -3.4 20:51:32 10° NW 20:54:49 69° SW 20:58:08 10° SE visible
23 Dec 0.0 03:26:11 10° SSE 03:26:35 10° SSE 03:26:59 10° SE visible
23 Dec -3.9 05:00:07 10° SW 05:03:25 78° NW 05:06:42 10° NE visible
23 Dec -0.4 21:37:27 10° WSW 21:39:13 14° SW 21:40:59 10° S visible
24 Dec -2.6 04:07:54 10° SSW 04:11:07 43° SE 04:14:16 10° ENE visible
24 Dec -1.1 20:43:57 10° W 20:46:43 24° SW 20:49:31 10° SSE visible
25 Dec -1.2 03:16:02 10° SSW 03:18:41 22° SE 03:21:19 10° E visible
25 Dec -2.7 04:52:22 10° WSW 04:55:05 24° NW 04:57:47 10° N visible
26 Dec -0.2 20:37:39 10° SW 20:38:45 11° SSW 20:39:51 10° SSW visible
